Tracking 29790 objects as of 12-Oct-2024
HD Live streaming from Space Station
objects crossing your sky now

SL-14 DEB

Track SL-14 DEB now!
10-day predictions


NORAD ID: 45293
Int'l Code: 1991-056AF
Perigee: 769.8 km
Apogee: 1,045.9 km
Inclination: 82.5 °
Period: 103.0 minutes
Semi major axis: 7278 km
RCS: Unknown
Launch date: August 15, 1991
Source: Commonwealth of Independent States (former USSR) (CIS)
Launch site: PLESETSK MISSILE AND SPACE COMPLEX (PKMTR)

Note: This is SATELLITE DEBRIS
Your satellite tracking list
Your tracking list is empty




NASA's NSSDC Master Catalog

Two Line Element Set (TLE):
1 45293U 91056AF  24284.45892390  .00090924  00000-0  54344-1 0  9999
2 45293  82.5436 101.5508 0189675 149.6985 211.5316 13.98001393231823
Source of the keplerian elements: AFSPC